sat.trackr.live / text

‹ back to catalog

STARLINK-4284

NORAD 53023 · 2022-076AP

PAYLOAD ACTIVE UNKNOWN

§ Identity

Operator
Country
US
Launch date
2022-07-07
Launch site
AFETR
Launch vehicle
Mass (kg)
RCS (m²)

Purposes: comms

External: N2YO · Heavens-Above · Gunter

§ Orbital elements

Epoch: 2026-09-19T18:33:25.936704Z

Period
93.82 min
Inclination
53.1592°
Eccentricity
0.0000859
Mean motion
15.34772961 rev/d
Perigee alt
461.0 km
Apogee alt
462.2 km
Semi-major
6,839.7 km
B*
-2.4450e-3
RAAN
284.7779°
Arg perigee
116.3513°
Mean anomaly
243.7578°
Rev number
23,239

§ Raw data

STARLINK-42841 53023U 22076AP  26262.77321686 -.00083057  00000+0 -24450-2 0  99992 53023  53.1592 284.7779 0000859 116.3513 243.7578 15.34772961232396

JSON: /api/v1/satellites/53023 · /tle

For live sub-satellite position, see the globe view (requires WebGL).

§ Visibility from observer

Set your observer location to see the next 7 days of passes ≥ 10°. The values pass through the URL so the page stays shareable.

No JS? Fill the form by hand. The geolocation button needs JavaScript.